DW2612 Weather Reports


time (UTC)temp
C
wind
direction
speed
KPH
gust
KPH
rain 1hr
cm
rain 24hr
cm
rain mn
cm
humidity
%
barometer
mb
20260507020551 11 298 0.0 0.0 0.00 3.66 3.66 93
20260507015025 11 298 0.0 0.0 0.00 3.66 3.66 94
20260507013527 11 298 0.0 0.0 0.00 3.66 3.66 93
20260507012050 11 298 0.0 0.0 0.00 3.66 3.66 93
20260507010533 11 298 0.0 0.0 0.00 3.66 3.66 94
20260507005016 11 298 0.0 0.0 0.00 3.66 3.66 94
20260507003519 11 298 0.0 0.0 0.00 3.66 3.66 93
20260507002019 11 298 0.0 0.0 0.00 3.66 3.66 94
20260507000546 11 298 0.0 0.0 0.00 3.66 3.66 94
20260506235021 11 298 0.0 0.0 0.00 3.66 3.66 94
20260506233524 11 298 0.0 0.0 0.00 3.66 3.66 94
20260506232027 11 298 0.0 0.0 0.00 3.66 3.66 94
20260506230531 11 298 0.0 0.0 0.00 3.66 3.66 94
20260506225035 11 298 0.0 0.0 0.00 3.66 3.66 94
20260506223517 11 298 0.0 0.0 0.00 3.66 3.66 94
20260506222016 11 298 0.0 0.0 0.00 3.66 3.66 94
20260506220523 11 298 0.0 0.0 0.00 3.66 3.66 94
20260506215019 11 298 0.0 0.0 0.00 3.66 3.66 94
20260506213524 11 298 0.0 0.0 0.00 3.66 3.66 94
20260506212022 11 298 0.0 0.0 0.00 3.66 3.66 94
20260506210546 11 299 0.0 0.0 0.00 3.66 3.66 94
20260506205028 11 217 0.0 0.0 0.03 3.66 3.66 94
20260506203529 11 216 0.0 0.0 0.03 3.66 3.66 94
20260506202046 11 219 0.0 0.0 0.05 3.66 3.66 94
20260506200533 11 296 0.0 0.0 0.13 3.66 3.66 94
20260506195047 11 296 0.0 0.0 0.15 3.63 3.63 94
20260506193530 11 296 0.0 0.0 0.25 3.63 3.63 94
20260506192035 11 296 0.0 0.0 0.25 3.61 3.61 94
20260506190521 10 296 0.0 0.0 0.20 3.53 3.53 94
20260506185026 10 296 0.0 0.0 0.18 3.48 3.48 94
20260506183529 10 296 0.0 0.0 0.10 3.38 3.38 94
20260506182047 10 296 0.0 0.0 0.08 3.35 3.35 93
20260506180549 10 296 0.0 0.0 0.05 3.33 3.33 94
20260506175020 10 296 0.0 0.0 0.03 3.30 3.30 94
20260506173519 10 296 0.0 0.0 0.00 3.28 3.28 94
20260506172040 10 296 0.0 0.0 0.00 3.28 3.28 94
20260506170541 10 296 0.0 0.0 0.00 3.28 3.28 94
20260506165017 10 296 0.0 0.0 0.00 3.28 3.28 94
20260506163520 10 296 0.0 0.0 0.00 3.28 3.28 94
20260506162035 10 296 0.0 0.0 0.00 3.28 3.28 94
20260506160554 10 305 0.0 0.0 0.00 3.28 3.28 94
20260506155051 10 305 0.0 0.0 0.00 3.30 3.28 94
20260506153529 10 305 0.0 0.0 0.00 3.30 3.28 94
20260506152025 10 305 0.0 0.0 0.00 3.30 3.28 94
20260506150529 10 306 0.0 0.0 0.00 3.30 3.28 94
20260506145024 10 69 0.0 0.0 0.00 3.30 3.28 94
20260506143546 10 69 0.0 0.0 0.00 3.30 3.28 94
20260506142026 9 284 0.0 0.0 0.03 3.30 3.28 94
20260506140528 9 286 0.0 0.0 0.03 3.30 3.28 94
20260506135025 9 284 0.0 0.0 0.03 3.35 3.28 94
20260506133526 9 317 0.0 0.0 0.13 3.35 3.28 94
20260506132025 9 325 0.0 0.0 0.61 3.33 3.25 94
20260506130530 9 5 0.0 0.0 0.97 3.33 3.25 94
20260506125028 9 5 0.0 0.0 1.68 3.33 3.23 94
20260506123532 9 9 0.0 0.0 2.03 3.23 3.12 93
20260506122027 9 348 0.0 0.0 1.55 2.74 2.64 93
20260506120527 9 348 0.0 0.0 1.19 2.39 2.29 93
20260506115026 9 344 0.0 0.0 0.36 1.93 1.45 93
20260506113527 10 321 0.0 0.0 0.03 1.57 1.09 93